sat.trackr.live / text

‹ back to catalog

AE5RA

NORAD 66685 · 2025-276V

PAYLOAD ACTIVE UNKNOWN

§ Identity

Operator
Country
JPN
Launch date
2025-11-28
Launch site
AFWTR
Launch vehicle
Mass (kg)
RCS (m²)

External: N2YO · Heavens-Above · Gunter

§ Orbital elements

Epoch: 2026-09-20T22:48:50.495616Z

Period
94.43 min
Inclination
97.4138°
Eccentricity
0.0005044
Mean motion
15.24909596 rev/d
Perigee alt
487.6 km
Apogee alt
494.5 km
Semi-major
6,869.2 km
B*
4.2069e-4
RAAN
336.9292°
Arg perigee
52.6160°
Mean anomaly
307.5537°
Rev number
4,503

§ Raw data

AE5RA1 66685U 25276V   26263.95058444  .00010406  00000+0  42069-3 0  99952 66685  97.4138 336.9292 0005044  52.6160 307.5537 15.24909596 45034

JSON: /api/v1/satellites/66685 · /tle

For live sub-satellite position, see the globe view (requires WebGL).

§ Visibility from observer

Set your observer location to see the next 7 days of passes ≥ 10°. The values pass through the URL so the page stays shareable.

No JS? Fill the form by hand. The geolocation button needs JavaScript.